Theta_e
327 328 327 327 327 327 327 328 328 328 325 323 323 324 322 318 316 315 318 317 318 325 326 323 324 325 323 325 328 327 326 325 325 325 322 321 321 321 321 321 320 319 317 315 313 312 310 309 308 307 307 306 306 306 305 305 305 305 304 304 305 305 305 305 305 307 308 309 309 309 309 310 311 311 312 313 314 314 314 313 312 309 305 304 303
328 329 329 327 327 327 327 328 329 329 327 324 322 324 322 316 313 314 316 316 317 322 326 324 323 323 322 323 327 327 325 325 324 324 321 320 320 320 321 321 321 321 319 318 315 314 313 311 311 309 309 308 307 307 306 306 305 305 305 304 304 305 305 305 305 305 306 308 309 309 309 309 310 311 312 313 313 313 314 314 313 311 307 304 304
328 329 329 328 328 328 329 329 329 330 329 325 323 325 323 314 311 311 313 314 316 321 323 323 322 321 321 321 325 326 325 325 324 323 321 320 321 322 322 323 323 322 321 320 319 317 315 314 313 313 312 312 311 310 308 307 306 305 305 304 304 304 305 305 304 305 305 306 308 309 309 309 310 310 312 312 313 313 314 314 313 312 310 306 304
329 330 330 329 329 330 330 330 331 331 330 327 323 325 324 315 311 312 314 315 317 322 324 322 322 321 320 320 323 326 325 325 323 322 321 320 322 323 324 324 325 324 323 322 322 320 319 318 317 316 315 315 314 314 313 311 308 306 306 305 304 304 304 304 304 304 305 305 306 308 309 309 309 310 311 312 313 313 313 314 314 313 311 308 306
330 330 330 330 329 330 331 331 332 331 331 328 323 324 324 316 316 318 320 321 319 323 325 324 323 321 320 319 321 324 325 324 323 322 321 321 323 324 325 325 325 326 325 324 323 322 322 321 320 319 318 317 316 316 315 314 313 311 308 306 305 304 304 304 304 304 304 305 305 306 308 308 309 309 310 312 313 313 313 313 313 313 311 310 307
330 330 330 330 329 331 332 331 331 331 332 331 325 324 324 319 320 324 325 325 322 321 323 325 325 323 321 320 320 321 323 324 324 323 321 321 324 325 325 326 326 327 327 326 325 324 324 323 323 322 321 320 319 318 317 316 315 314 313 311 308 306 304 304 304 304 304 304 305 305 307 308 309 309 310 311 313 313 313 314 313 313 312 310 308
331 331 331 331 331 331 331 330 331 331 332 332 328 325 325 322 322 325 326 327 326 323 322 324 326 325 324 323 321 320 321 322 323 322 321 321 325 326 326 327 327 327 327 326 326 326 326 325 325 324 323 323 321 320 319 318 316 315 315 314 313 311 308 305 303 304 304 304 305 306 306 308 308 309 310 311 312 313 313 313 313 313 312 310 308
329 330 331 331 331 330 330 330 330 331 330 331 330 326 324 324 323 324 325 326 327 326 325 323 323 326 326 325 324 322 321 320 320 320 320 322 324 325 326 327 327 327 327 327 327 327 326 327 326 326 325 324 323 322 321 320 318 317 316 315 315 314 312 310 307 305 305 305 304 306 307 307 308 309 310 311 312 313 313 313 313 313 312 310 308
325 326 328 330 330 330 329 330 331 331 330 330 331 328 325 324 324 324 324 325 326 326 326 325 324 326 327 326 325 324 322 320 320 320 322 323 324 325 326 327 328 328 328 328 328 328 327 327 327 326 326 326 325 323 322 322 321 320 318 317 317 316 315 314 312 308 308 309 306 305 308 308 308 309 310 311 312 313 313 313 313 312 311 310 308
319 320 323 326 328 329 329 331 331 330 330 330 330 329 327 325 324 325 324 325 326 326 326 326 326 326 327 327 326 325 323 321 322 323 324 324 324 324 324 325 327 328 328 328 328 328 328 328 327 327 327 326 326 324 323 323 323 323 322 321 320 318 318 315 314 312 310 314 312 306 308 310 309 309 310 311 312 313 313 313 313 312 311 310 308
313 315 316 319 321 324 326 328 330 330 330 330 329 329 329 328 326 326 326 326 326 326 327 327 327 327 327 327 326 325 325 324 325 324 325 325 324 323 323 323 325 325 326 327 327 327 327 328 328 327 327 326 327 326 325 324 324 324 324 323 323 321 322 319 316 314 312 317 319 312 309 311 310 310 311 312 313 313 314 313 313 312 311 310 309
307 310 312 312 314 317 319 322 325 328 329 329 330 330 330 330 329 329 328 327 327 327 327 328 328 328 327 327 327 327 327 326 325 325 325 325 325 324 323 323 324 324 324 324 324 325 326 326 327 327 326 326 327 326 326 325 324 325 324 324 325 324 324 323 319 316 312 316 323 320 314 312 311 311 312 312 312 313 314 313 312 312 311 310 309
304 307 308 309 310 312 314 316 319 323 326 328 329 330 330 330 330 330 330 329 328 328 328 328 328 328 328 328 328 328 328 327 325 325 326 325 325 324 323 323 323 323 323 323 323 324 324 324 325 325 326 326 326 326 326 326 325 326 325 325 325 324 324 324 323 319 314 314 320 323 320 316 312 311 311 311 312 313 314 314 313 312 311 310 309
303 305 307 307 309 311 312 313 316 321 325 326 327 328 329 330 329 330 330 330 330 329 329 329 328 328 328 328 329 328 328 328 327 326 325 325 325 325 324 323 323 323 324 324 324 324 325 325 325 324 325 325 325 325 325 326 325 326 326 326 326 325 324 325 324 322 318 313 314 320 322 320 316 315 313 310 310 312 314 314 313 312 311 310 308
304 304 306 307 309 310 311 313 315 319 323 325 326 327 328 328 328 328 329 329 330 330 330 330 330 330 329 329 330 329 328 328 328 327 326 327 326 325 326 325 324 324 324 324 324 325 325 325 325 325 324 325 325 326 325 325 325 326 326 327 326 326 325 325 324 323 321 315 310 315 322 322 320 320 318 315 312 311 312 314 314 312 311 310 308
304 305 306 307 309 310 310 311 313 317 319 321 322 324 325 326 326 327 327 328 328 328 329 330 330 330 330 330 330 329 328 328 328 328 327 327 327 327 327 326 325 325 325 326 326 327 327 326 325 325 325 325 325 326 325 325 325 325 326 327 326 326 326 325 325 324 324 320 312 313 321 323 322 322 320 320 318 314 311 312 314 314 312 309 308
305 306 307 307 308 309 309 310 311 312 314 315 316 318 320 322 322 323 324 325 327 327 327 328 328 329 330 330 330 329 329 328 328 329 329 328 328 328 328 327 327 327 327 327 328 328 328 327 326 325 325 324 325 325 325 325 325 325 326 326 326 327 326 326 325 324 324 323 317 312 316 321 323 323 321 321 321 319 315 311 312 314 313 311 308
305 306 307 307 307 308 308 308 308 309 309 310 310 311 312 314 316 317 318 320 323 323 324 326 326 327 327 329 329 328 328 329 328 329 328 328 329 329 328 328 328 328 327 328 328 328 328 327 326 326 325 325 325 325 325 325 325 325 325 326 326 326 326 326 326 325 324 325 323 316 314 318 323 324 323 323 321 321 321 316 312 312 313 313 311
305 305 306 307 307 307 307 307 307 308 308 308 308 308 308 309 310 311 312 314 317 320 322 324 324 325 326 327 327 327 328 328 328 328 329 328 328 328 328 328 328 328 328 328 327 327 327 326 326 325 325 326 326 326 326 326 325 325 325 325 326 326 326 325 325 326 325 325 325 322 318 317 320 322 323 324 323 322 322 321 317 313 313 313 313
305 304 304 304 305 305 305 305 305 305 306 306 307 307 307 307 308 309 309 311 313 316 319 320 322 323 324 325 325 325 326 327 327 327 328 328 327 327 328 328 328 328 327 328 327 327 327 327 327 327 327 327 327 327 327 326 326 326 326 326 326 325 325 325 325 325 326 325 325 325 324 320 319 321 322 323 324 323 323 322 321 318 315 314 314
306 305 305 304 304 305 304 305 304 304 304 304 304 304 304 305 305 306 307 308 310 313 315 317 318 319 320 321 322 323 324 325 325 325 326 327 327 327 327 327 327 328 328 327 328 328 328 327 327 328 328 328 328 328 328 327 327 327 327 327 326 326 326 325 325 326 325 326 325 325 325 325 323 323 323 323 323 323 323 322 322 321 319 316 314
306 306 305 305 305 305 305 305 305 305 305 305 304 304 304 304 304 304 304 305 306 307 309 311 312 314 315 315 317 318 319 321 322 322 323 324 325 325 324 325 325 326 326 327 327 327 328 328 328 328 328 328 328 328 328 328 328 328 328 328 327 327 326 326 326 326 326 326 325 325 325 326 326 325 325 325 324 323 323 323 323 323 322 319 316
306 306 306 305 305 305 305 305 305 305 305 304 304 305 305 305 305 304 304 304 304 304 305 305 306 307 308 309 310 311 313 316 317 318 319 321 322 322 322 322 322 321 322 323 324 325 325 326 326 326 327 327 328 328 328 328 328 328 328 328 328 327 327 326 326 326 326 326 326 325 325 325 326 326 326 326 325 325 324 324 323 322 323 322 319
307 306 306 306 305 306 306 306 305 305 305 305 305 305 305 305 305 305 305 305 304 304 304 304 304 304 305 305 306 306 307 309 311 312 314 316 318 318 319 320 320 319 319 317 317 319 321 323 324 325 324 325 326 326 327 327 327 328 328 328 328 328 328 327 327 327 327 327 326 326 325 325 325 325 326 326 326 326 325 325 324 323 322 322 322
307 307 306 306 306 306 306 306 306 305 305 305 305 305 305 305 305 305 305 305 304 304 304 304 303 303 304 304 304 304 304 305 305 307 308 311 314 316 316 317 317 318 317 315 314 314 315 318 321 323 324 323 324 324 324 325 326 327 328 328 328 328 328 328 328 327 327 327 327 326 325 325 325 325 326 326 326 326 326 325 325 324 323 323 323
308 307 307 307 306 306 306 306 306 306 305 305 305 305 305 305 305 305 305 305 304 304 304 304 304 303 303 303 303 303 303 303 303 303 304 305 309 312 313 313 313 314 315 315 314 314 315 317 318 320 323 323 323 323 323 323 324 325 327 327 328 328 328 328 328 328 328 328 327 327 326 326 325 325 325 325 326 326 326 325 325 324 323 322 323
308 308 307 307 307 306 306 306 306 306 305 305 305 305 305 305 305 305 305 305 304 304 304 304 303 303 303 303 303 302 302 302 302 302 302 302 303 305 307 309 310 311 313 313 314 314 313 312 312 315 320 322 321 320 321 323 323 324 326 326 327 328 328 328 328 327 327 328 328 327 327 326 326 325 325 325 325 325 325 326 325 324 323 322 322
310 309 308 307 307 307 307 307 306 306 306 305 305 305 305 305 304 304 305 305 304 304 303 303 303 303 303 303 303 303 302 302 302 302 302 302 302 302 303 306 309 311 312 312 313 314 313 312 313 316 318 319 319 317 317 320 323 323 324 325 325 326 327 327 327 326 326 327 328 328 327 326 326 326 325 325 325 325 325 325 325 325 324 322 321
312 310 309 308 308 307 307 307 306 306 306 306 305 305 304 304 304 304 304 304 304 303 303 303 303 302 302 302 302 302 302 302 302 302 302 302 302 302 302 303 307 309 311 312 312 313 313 313 314 315 316 316 314 313 313 316 321 321 322 323 324 324 326 326 326 326 326 326 327 327 327 326 326 325 326 326 325 325 325 325 325 325 324 323 321
313 312 311 309 309 308 307 307 307 306 306 306 305 305 304 304 304 304 304 304 304 303 303 303 302 302 302 302 302 302 301 301 301 301 301 302 301 302 303 304 304 305 308 309 309 308 308 309 311 314 317 315 310 308 309 312 315 317 318 320 322 323 324 325 325 326 326 326 326 326 326 326 326 326 326 326 326 326 325 325 325 325 325 324 322
313 313 312 311 310 308 308 307 307 306 306 306 306 305 304 304 304 304 304 304 303 303 303 302 302 302 302 301 301 301 301 300 301 300 300 301 301 301 302 304 305 305 305 305 305 304 305 307 309 311 313 313 310 307 307 308 309 310 312 315 318 320 322 323 324 325 325 325 326 326 326 326 326 325 325 325 325 326 326 325 325 325 324 324 323
313 313 314 312 311 310 308 308 307 307 306 306 306 306 305 304 304 304 304 304 304 303 303 302 302 302 301 301 300 300 300 299 300 300 300 300 301 302 303 303 304 305 306 306 305 304 303 304 304 304 305 305 305 305 304 304 305 306 307 309 311 314 316 319 321 322 324 324 324 325 325 325 325 325 325 325 325 326 326 326 326 325 325 324 323
313 314 314 314 313 311 309 308 308 307 306 306 306 306 305 304 303 304 304 304 304 303 303 303 302 302 301 301 300 300 299 299 298 299 299 299 300 301 303 303 304 304 305 306 306 305 304 304 304 303 304 303 302 303 302 302 303 303 304 306 307 310 312 315 318 320 322 322 323 323 324 324 324 325 325 325 325 325 326 326 326 326 325 325 324
314 314 314 314 314 312 310 309 309 308 307 306 306 306 305 304 303 303 303 303 303 303 303 303 302 302 301 301 300 300 299 299 299 299 298 298 299 299 300 302 303 304 304 304 305 304 304 304 304 304 305 305 304 303 303 302 302 302 302 304 306 308 310 313 315 318 318 319 320 321 322 323 323 324 325 325 325 325 325 325 325 326 326 326 325
315 314 314 313 314 313 312 310 309 309 308 306 306 306 305 304 303 303 303 303 303 303 302 302 301 301 301 300 300 300 300 299 299 298 298 298 298 298 298 299 301 303 303 303 303 304 303 303 304 304 304 305 304 304 304 303 303 302 302 302 303 306 308 312 315 317 317 318 317 318 320 321 322 322 323 324 325 325 325 325 325 325 326 326 326
318 316 314 314 314 313 312 311 309 309 308 307 306 306 305 304 303 303 303 303 303 302 302 301 301 300 300 300 300 300 300 299 298 297 297 297 297 297 297 298 299 301 302 303 303 303 303 303 303 303 304 304 304 304 304 304 304 304 303 302 302 303 307 312 316 318 318 319 318 317 317 319 321 321 321 322 323 324 325 325 325 325 325 326 326
320 319 317 315 314 313 312 311 310 309 309 308 307 306 305 304 303 303 303 303 303 302 302 301 301 300 300 300 300 299 298 298 297 296 296 296 296 297 297 298 299 299 300 302 303 302 302 302 303 304 304 304 304 304 304 304 304 304 304 304 303 302 304 308 315 318 318 319 319 318 317 317 318 320 320 321 322 323 324 325 325 325 325 325 326
321 320 318 316 315 314 313 312 310 309 309 308 307 307 306 304 303 303 303 303 302 302 301 301 301 300 300 300 299 297 297 296 296 296 296 296 296 296 297 297 298 299 300 301 302 302 302 302 302 303 303 303 303 303 303 304 304 304 304 305 305 304 303 304 308 313 316 317 318 319 318 317 316 316 319 321 321 322 323 324 324 325 325 325 325
320 319 318 317 316 315 314 313 311 310 309 308 307 307 306 304 303 303 302 302 302 302 301 301 301 300 300 299 297 296 295 296 296 296 296 296 296 297 297 297 298 300 301 302 302 302 302 302 302 302 301 301 302 302 303 303 303 304 304 305 306 306 305 303 303 305 310 313 316 317 319 319 317 315 316 318 320 321 321 322 324 324 324 324 325
319 319 317 316 316 315 314 314 312 310 310 309 307 307 305 303 302 302 302 302 301 301 301 301 300 300 299 298 296 295 295 295 295 296 296 296 296 297 297 297 298 300 300 301 301 301 302 302 302 301 301 301 301 301 302 302 303 304 305 304 305 306 306 306 305 303 304 307 310 314 317 319 319 318 317 316 316 318 320 321 323 323 324 324 324
318 317 316 315 315 315 315 314 311 310 309 309 308 306 304 302 302 302 302 302 301 301 301 300 300 299 298 296 295 295 295 294 295 295 295 295 296 296 297 297 298 299 300 300 300 300 300 301 301 301 301 301 301 301 301 302 302 303 304 304 304 305 305 306 307 306 304 303 304 308 313 318 319 319 318 317 315 316 319 321 322 323 323 324 324
317 316 315 315 315 315 315 313 311 309 308 308 307 305 303 302 302 302 302 302 301 301 300 300 299 298 296 295 294 294 294 294 294 294 294 294 295 295 296 296 297 298 299 299 300 300 300 300 300 300 301 301 301 301 301 301 301 302 302 303 303 304 304 305 306 307 307 305 304 304 308 314 318 319 319 319 318 317 319 321 322 323 324 324 324
319 317 316 315 315 315 314 313 311 310 309 308 306 304 302 302 302 302 302 302 301 301 300 299 298 296 295 294 294 293 293 293 294 294 294 294 294 295 295 296 296 297 297 298 298 299 299 300 300 300 300 300 300 300 300 301 301 301 301 302 302 302 303 304 304 305 306 307 307 306 305 309 315 318 319 319 319 319 319 320 322 323 324 324 324
320 318 316 316 315 314 313 313 311 310 308 307 305 303 302 302 303 302 302 301 301 300 299 298 296 295 294 293 293 293 293 293 294 294 294 294 295 295 295 296 296 296 297 297 297 297 298 298 299 299 299 299 300 300 300 300 301 301 301 301 301 301 301 302 303 304 306 307 308 307 305 306 311 316 319 319 319 319 320 320 322 324 324 324 324
319 318 316 316 315 314 313 312 311 309 307 305 304 303 303 303 303 303 302 301 300 299 297 296 295 294 293 293 293 293 294 294 294 295 295 295 296 296 296 296 296 296 297 297 297 297 297 297 297 298 298 299 299 299 299 299 300 300 300 300 301 301 301 301 302 303 305 306 307 307 306 305 307 312 316 318 318 318 319 320 322 323 324 324 324
318 318 316 315 314 313 313 312 310 308 306 304 303 303 303 303 303 302 301 300 299 297 296 295 294 293 293 293 294 294 294 295 295 295 296 296 296 296 296 296 297 297 297 297 297 297 297 297 297 297 297 298 298 298 298 299 299 299 299 300 300 300 301 301 301 302 304 305 306 306 307 306 306 309 312 316 318 318 318 319 320 321 322 323 323
317 317 317 315 313 313 312 311 308 306 305 304 304 303 303 303 302 301 300 299 297 296 294 293 293 293 293 294 294 294 295 295 296 296 296 296 296 296 296 296 296 297 297 297 297 297 297 297 296 297 297 297 297 297 298 298 298 298 299 299 299 299 299 300 300 301 302 302 303 304 306 306 307 309 310 311 314 317 318 318 318 319 321 321 322
317 317 316 315 313 312 311 309 307 305 305 304 304 304 303 302 301 299 298 297 295 294 293 293 293 293 294 294 294 295 295 295 296 296 296 296 296 296 296 296 296 296 296 296 296 296 296 296 296 296 296 296 296 296 297 297 297 298 298 298 298 299 299 299 299 300 301 302 302 303 304 306 306 308 309 309 311 314 316 318 318 318 319 320 321
316 316 315 313 312 311 310 308 306 305 305 304 304 303 302 300 299 297 296 294 293 293 293 293 293 293 294 294 295 295 295 295 295 295 295 295 295 295 295 295 295 295 295 295 295 295 295 295 295 296 296 296 296 296 296 296 296 296 296 296 297 298 298 299 300 300 301 302 302 303 304 305 305 307 308 309 310 312 313 316 317 316 318 319 319
315 315 314 312 311 310 308 306 305 305 304 303 301 300 299 298 296 295 293 293 292 293 293 293 293 294 294 294 295 295 295 295 295 295 294 294 294 294 294 293 293 293 293 294 294 294 294 294 294 294 295 295 295 295 295 296 295 295 294 294 296 297 298 298 299 300 301 301 301 302 304 305 305 306 307 309 309 309 310 313 316 316 316 317 318
314 314 312 311 310 308 306 305 304 303 301 300 298 297 296 295 293 292 292 292 292 292 292 293 293 294 294 295 295 295 296 295 295 295 294 294 294 293 293 292 292 292 292 293 292 292 293 293 293 293 293 293 293 294 294 295 296 295 295 294 295 296 297 298 298 299 300 300 301 301 302 304 305 305 307 308 309 309 309 311 313 315 315 316 317
Wind_Speed
11 10 10 9 10 11 11 11 11 11 11 10 9 7 6 8 12 17 18 17 17 17 17 17 19 20 17 15 14 12 11 10 9 8 5 4 3 2 2 1 1 0 0 1 1 0 0 1 1 1 1 3 3 3 3 3 3 2 1 2 3 3 3 3 2 1 0 1 2 3 4 5 6 7 8 10 11 14 16 17 19 19 18 17 16
11 11 11 11 12 13 12 12 12 13 13 12 11 9 6 6 10 17 19 17 15 16 16 15 17 19 18 17 15 14 12 12 11 9 7 5 4 3 2 2 0 0 0 1 1 1 1 2 2 2 2 1 2 2 2 2 2 2 2 2 1 2 3 3 3 2 1 1 0 2 3 4 5 6 7 8 9 11 13 15 17 18 17 16 15
12 13 12 11 12 13 12 13 14 14 14 13 11 9 7 5 8 14 17 16 14 14 14 14 15 17 18 18 17 16 14 13 12 10 8 7 6 5 4 3 2 1 0 0 1 2 2 2 3 3 3 3 3 3 3 3 2 1 2 3 3 3 2 2 3 4 3 2 1 0 2 3 3 4 5 6 7 9 11 13 15 16 16 16 15
13 14 13 11 12 14 12 12 14 13 14 14 12 10 7 5 7 11 13 14 14 13 13 13 14 16 18 19 19 18 17 15 14 12 10 8 8 7 6 5 4 2 1 0 1 2 3 3 3 4 4 4 4 4 4 3 2 1 0 2 4 4 4 3 3 4 4 3 3 2 0 1 2 2 4 5 6 7 9 11 13 14 15 15 15
13 13 12 11 11 13 13 11 11 12 14 16 14 12 8 6 9 12 12 13 15 14 12 11 13 15 17 19 20 20 19 18 16 14 12 10 9 8 7 7 5 4 3 2 1 1 3 3 4 5 4 4 4 4 3 3 3 2 1 1 2 4 5 5 4 4 5 5 4 4 2 1 0 0 2 3 4 5 6 8 11 12 14 14 14
14 12 12 11 10 12 12 10 10 11 12 15 15 14 12 11 13 13 13 13 15 17 15 11 11 14 16 18 20 21 21 20 18 17 15 13 11 10 9 7 6 5 4 3 2 2 2 3 4 5 5 5 5 4 3 3 3 3 3 2 1 2 3 5 5 5 6 6 6 5 4 3 2 1 1 1 2 3 4 6 8 10 12 13 13
14 13 12 11 10 12 11 9 10 8 8 12 15 17 16 15 16 16 15 14 14 17 18 16 13 14 16 17 19 20 22 22 21 20 17 15 13 11 10 9 7 6 5 5 4 3 3 3 4 5 5 6 6 6 5 4 4 4 5 4 3 3 3 4 6 7 7 7 8 7 6 4 3 3 3 2 1 1 2 4 6 8 10 11 11
12 12 12 9 8 9 9 9 9 8 9 11 13 17 18 17 18 19 18 17 16 15 17 18 17 15 15 16 18 20 21 22 21 20 17 15 13 12 11 10 9 8 7 7 6 4 3 3 3 4 5 6 6 7 7 6 6 5 6 6 6 5 4 4 5 6 8 8 9 9 8 6 5 4 4 4 3 2 0 2 4 6 8 9 10
7 7 7 8 7 7 7 8 9 9 9 9 10 15 19 19 20 21 20 19 18 17 16 18 19 17 16 16 18 20 21 19 18 16 15 13 12 11 11 10 9 8 7 7 7 6 5 4 4 4 4 4 5 6 7 8 8 7 7 7 8 7 6 5 5 6 7 9 9 10 9 8 7 6 5 5 4 3 2 1 2 4 6 7 8
4 3 3 5 7 7 7 9 9 10 9 8 8 12 18 21 21 20 21 20 20 19 19 19 19 18 17 16 17 18 19 18 16 15 13 12 11 10 10 9 9 8 7 7 7 7 7 6 6 5 5 4 4 5 5 6 7 8 8 8 8 9 10 9 6 5 6 8 9 9 9 9 9 7 7 6 6 5 4 3 2 3 4 6 7
4 3 2 2 4 7 9 10 9 9 10 10 9 10 14 19 20 20 20 21 21 20 20 20 20 20 18 17 17 17 18 18 18 16 14 13 11 10 9 9 9 9 9 9 8 8 8 8 8 7 7 6 5 5 5 5 6 6 7 8 9 10 11 11 9 6 5 7 9 9 8 9 10 9 8 7 7 6 5 5 4 3 4 4 5
4 3 3 2 1 3 5 7 9 10 11 10 10 11 12 14 18 20 20 20 21 21 21 21 22 21 19 19 18 17 18 18 19 18 16 15 14 12 10 10 10 9 9 9 9 8 8 8 9 9 8 8 7 7 6 6 5 6 7 7 8 9 10 11 12 9 4 6 9 10 8 7 9 10 10 8 7 7 6 6 6 5 4 4 5
2 3 3 2 1 1 1 2 4 6 8 9 10 11 11 12 15 18 20 20 20 20 21 22 21 20 19 18 18 17 17 17 19 19 17 16 16 14 13 11 10 9 9 9 9 9 9 9 10 10 10 9 9 8 8 7 7 7 7 7 7 8 8 9 11 11 7 6 10 12 9 7 7 9 10 10 9 8 7 7 7 6 6 5 5
2 2 2 2 2 1 1 1 1 2 3 5 7 8 9 10 11 13 16 18 18 18 19 20 20 18 17 17 17 18 18 16 17 19 18 17 16 15 15 14 13 12 11 11 11 11 11 11 11 11 11 11 11 10 10 9 9 8 9 9 8 8 8 8 9 11 10 6 9 13 11 8 7 7 8 9 10 9 8 7 8 8 7 7 6
4 3 3 3 3 2 2 2 3 4 4 3 3 4 4 4 5 6 7 10 14 17 19 19 18 17 16 17 16 17 18 18 17 18 18 18 17 16 16 15 15 16 16 15 14 14 13 13 13 13 13 13 13 13 12 11 10 10 10 10 9 9 8 8 8 9 10 8 6 11 12 10 9 7 7 7 8 10 10 9 8 8 8 8 7
6 6 5 4 3 3 2 2 2 3 4 3 3 3 3 2 2 2 3 3 6 11 15 15 16 15 14 15 16 14 15 17 17 17 18 18 18 18 17 16 16 17 17 17 16 16 15 15 15 15 15 15 15 15 14 13 13 12 12 11 10 9 9 9 8 7 8 9 5 9 13 13 12 9 8 7 7 9 10 10 10 9 9 9 9
6 7 7 6 5 4 3 2 2 2 3 2 2 3 3 3 2 2 2 2 2 4 7 8 10 12 13 13 12 11 13 16 15 14 16 17 16 16 16 17 17 18 19 18 18 18 17 17 17 16 16 15 15 16 16 15 14 14 13 12 11 10 10 10 10 8 7 7 6 6 12 14 13 11 10 9 8 8 8 10 11 11 10 10 10
6 7 7 7 6 5 4 3 2 2 2 1 1 2 2 3 3 2 2 3 4 3 4 5 6 7 11 12 11 10 11 13 12 10 12 14 15 15 15 16 16 17 18 18 19 19 19 18 18 18 17 17 16 16 16 16 16 16 15 14 13 12 11 11 11 11 9 8 6 5 9 13 14 13 12 11 10 9 8 8 10 12 12 11 11
6 7 7 7 7 7 6 5 4 3 2 1 0 1 2 3 3 3 3 3 4 4 4 5 4 4 7 9 12 12 10 10 10 10 10 11 13 13 14 16 16 15 14 14 15 16 16 17 17 18 18 18 18 18 18 18 17 17 16 15 14 13 13 12 13 13 12 11 8 6 7 10 12 14 15 14 13 12 11 10 9 10 12 12 12
6 7 8 8 8 8 7 6 6 5 4 3 2 2 2 1 1 2 3 3 4 5 5 5 5 5 6 6 7 8 9 9 10 10 9 10 12 13 14 16 16 15 14 12 13 14 14 15 15 16 16 15 15 15 16 17 18 18 17 16 15 14 13 13 13 14 14 14 12 10 9 9 10 11 13 15 15 14 14 13 12 11 11 13 14
5 6 7 8 8 7 7 6 5 5 4 3 3 3 3 2 1 1 1 2 3 5 6 6 6 6 6 6 5 6 7 7 9 10 8 9 10 11 14 16 17 16 16 15 15 15 16 16 16 16 16 14 13 12 13 13 14 15 16 16 16 15 13 13 13 14 15 16 16 14 13 12 11 11 11 12 14 16 16 15 15 14 13 14 14
4 4 5 6 6 5 5 4 4 4 4 3 3 3 4 4 3 3 3 3 3 3 4 5 6 7 7 7 7 8 7 7 8 8 7 8 9 9 10 13 17 18 19 19 18 19 20 20 20 20 19 18 17 16 15 14 14 13 12 13 15 16 16 15 14 14 16 17 18 17 16 15 14 14 14 13 13 14 16 16 16 16 16 15 16
3 3 4 4 4 3 3 2 3 3 3 3 3 3 3 4 4 5 5 5 5 5 5 5 6 7 7 7 7 8 9 8 8 8 6 7 9 9 9 10 15 17 18 19 19 19 19 20 21 21 22 22 22 22 21 20 19 17 15 14 14 16 17 17 17 16 16 18 20 21 20 19 17 17 17 17 16 14 14 15 17 17 17 17 17
3 3 3 3 3 2 1 1 1 2 2 3 3 3 3 4 4 4 5 5 5 5 6 6 7 8 8 8 8 8 9 10 10 10 9 8 9 10 11 11 13 15 16 18 19 17 17 17 16 16 18 20 21 23 24 24 23 22 20 19 17 17 18 19 19 19 18 18 19 21 23 22 21 20 20 20 19 17 15 14 16 17 18 18 17
4 4 4 4 3 3 2 1 1 1 2 2 3 4 5 5 5 5 5 6 6 6 5 5 5 6 7 8 8 9 10 11 12 12 13 13 11 10 11 12 14 16 17 19 20 19 19 17 15 13 13 14 14 17 21 22 23 23 22 22 21 20 20 19 19 20 20 20 20 21 23 24 25 24 23 22 21 20 19 17 16 16 16 17 17
5 5 5 5 5 4 4 3 3 2 2 2 3 4 5 6 6 6 6 6 6 6 6 5 5 4 4 5 6 8 9 11 12 13 15 15 13 12 12 13 16 18 18 19 20 21 20 18 18 17 14 13 13 15 17 18 21 21 21 21 22 23 22 21 21 21 20 21 21 21 22 24 27 27 26 25 24 23 23 21 19 16 15 16 17
7 7 7 7 6 6 6 5 4 4 3 3 3 4 4 5 6 7 7 7 7 7 7 7 7 6 5 5 5 5 7 8 10 12 14 15 16 16 15 15 17 18 17 17 18 20 21 21 22 21 17 16 17 18 18 17 17 19 19 20 21 21 22 24 25 23 20 20 21 22 22 24 26 29 30 29 29 27 26 25 24 20 17 15 16
9 9 9 8 7 7 7 7 6 5 5 5 5 5 5 5 6 6 7 7 8 8 8 8 8 8 8 8 7 7 7 7 8 9 11 13 14 16 16 14 14 15 16 17 17 16 17 17 17 16 14 14 16 19 21 18 15 16 17 18 20 19 19 21 23 24 24 24 23 22 22 24 25 28 31 32 32 31 29 29 28 26 21 17 16
11 11 10 10 9 9 9 8 8 7 6 6 6 6 7 7 7 7 6 7 7 7 8 8 8 9 9 9 9 9 9 8 9 9 10 11 12 14 15 13 12 13 13 16 17 16 15 14 13 12 13 16 19 21 22 21 18 17 16 16 18 17 17 17 18 21 24 26 26 24 23 24 25 27 30 32 34 34 34 32 31 30 26 21 18
13 13 12 12 11 10 10 10 9 8 7 7 7 7 8 8 9 9 9 8 8 8 8 8 9 9 10 10 10 10 10 10 10 10 10 10 11 12 13 12 11 13 13 16 21 21 18 18 16 12 12 18 22 23 23 23 23 21 18 18 18 17 17 18 18 20 22 24 25 25 24 23 22 23 24 27 31 35 37 36 34 33 31 27 23
16 15 14 14 13 12 11 11 11 10 9 8 8 8 9 9 9 10 10 11 11 11 11 10 10 10 10 11 11 11 12 11 11 11 11 11 10 10 10 11 11 12 13 16 23 25 22 20 19 17 18 21 22 23 24 24 25 25 22 21 21 20 20 20 20 20 21 21 21 22 22 21 21 21 20 21 26 31 36 38 37 36 34 32 29
18 17 17 15 14 13 13 13 13 12 11 10 10 10 11 10 10 10 11 11 12 13 13 14 14 13 13 13 13 14 15 14 14 14 14 13 11 9 8 9 9 10 10 13 21 28 27 24 25 25 26 28 27 27 27 27 27 27 25 25 24 23 23 23 24 23 22 22 21 21 21 20 21 24 23 22 24 27 31 36 38 38 36 35 33
20 19 19 18 16 15 14 14 14 14 13 12 11 12 12 12 12 12 12 12 12 12 13 14 15 15 16 16 17 17 18 18 18 17 16 15 13 11 9 9 9 9 9 10 17 26 27 25 26 27 26 27 28 28 28 28 28 27 26 26 26 25 24 25 26 25 24 23 23 23 23 23 22 24 24 24 25 26 28 32 36 38 38 37 35
22 21 21 20 18 17 16 16 16 16 15 13 13 14 14 14 14 14 13 13 13 13 13 13 14 15 16 17 17 19 20 20 20 20 19 18 17 15 13 11 10 10 10 11 14 21 26 25 25 26 24 25 27 27 28 29 29 28 27 26 27 27 26 26 26 27 27 26 25 25 26 26 26 25 24 25 25 26 27 29 33 36 38 39 37
24 23 23 22 20 19 19 18 18 18 17 15 15 15 15 15 16 15 15 14 14 14 14 15 15 16 17 18 18 19 20 21 21 21 20 20 19 19 18 16 13 11 10 12 14 18 24 26 24 24 24 25 27 27 28 29 28 28 26 25 26 27 27 27 27 27 28 28 28 28 27 27 28 28 27 27 27 27 28 29 31 34 36 38 39
27 26 25 24 23 22 21 21 21 20 19 18 17 17 17 17 17 17 17 16 16 16 16 17 17 18 19 20 20 21 21 21 21 20 20 20 20 20 20 19 18 16 12 11 13 16 20 24 25 24 23 24 26 27 28 29 29 27 26 25 25 26 28 27 26 26 26 26 28 29 30 29 29 29 29 29 29 29 29 29 30 32 35 37 38
31 29 27 26 25 25 24 24 24 23 21 20 20 20 19 19 19 18 18 17 17 17 17 18 19 20 21 22 22 23 23 22 21 20 19 19 19 19 20 19 19 19 16 12 13 15 18 22 25 23 20 20 24 26 27 28 29 29 27 25 24 25 28 29 28 26 25 25 25 26 30 31 31 30 30 30 30 30 30 30 30 31 34 36 38
36 33 30 29 28 27 26 26 25 25 23 23 22 21 21 20 20 19 18 18 18 18 18 19 20 21 22 23 24 23 23 22 22 22 21 20 21 20 20 20 19 19 18 14 13 15 17 19 22 24 24 23 25 27 27 26 27 29 29 28 26 25 25 28 31 31 30 28 25 23 26 30 32 32 31 31 31 31 31 31 31 31 32 34 37
37 34 32 31 29 28 27 26 26 26 25 25 24 23 22 21 20 19 19 18 18 18 19 20 22 23 24 25 24 23 23 23 22 22 22 22 22 21 20 20 18 16 15 14 14 15 16 18 21 25 27 27 28 28 28 26 25 26 27 28 27 26 25 26 29 32 34 33 29 25 24 27 31 33 33 33 32 32 32 32 33 33 32 33 35
34 34 32 31 29 28 27 26 26 26 26 26 25 23 22 22 21 20 19 18 19 19 20 22 23 24 25 25 25 24 24 24 23 23 23 23 23 23 22 20 18 15 15 16 16 17 17 19 21 23 26 27 29 30 30 29 26 22 21 22 25 27 28 27 26 28 31 33 33 29 25 25 28 31 33 33 34 33 33 33 34 34 34 33 33
32 32 30 28 29 29 29 28 28 28 28 28 26 24 23 22 21 20 19 18 19 20 21 23 24 25 26 26 26 25 25 25 25 25 25 24 24 25 24 23 20 16 15 17 18 19 20 21 21 22 23 25 27 30 30 30 28 22 18 20 23 26 28 29 28 26 26 28 31 31 29 25 24 27 30 32 33 34 35 35 35 35 34 33 32
29 31 29 29 32 33 32 32 32 32 31 29 26 24 23 22 20 19 18 18 19 20 22 23 25 26 27 27 28 27 27 27 27 27 27 26 26 26 25 25 24 22 20 18 18 19 20 22 22 22 23 23 25 27 30 31 31 27 21 19 20 22 24 27 29 27 25 25 27 30 31 28 25 24 26 29 32 33 35 35 35 35 33 32 31
24 27 29 31 35 37 36 33 33 33 31 28 25 24 22 21 19 18 18 18 20 21 23 24 26 27 28 29 29 30 29 29 29 30 29 29 28 27 27 26 26 26 26 25 23 22 21 22 22 21 23 24 23 24 26 27 28 26 21 17 17 19 21 22 24 25 24 23 23 25 29 30 28 25 24 26 29 31 32 33 33 32 31 31 31
20 24 28 32 35 37 36 33 32 31 28 26 24 22 21 20 19 18 18 19 21 22 24 25 27 28 29 30 31 31 31 30 30 30 30 30 30 29 29 29 29 29 29 29 29 27 26 26 25 24 24 24 24 23 22 22 22 20 18 17 16 18 19 19 21 21 21 21 22 24 27 29 30 29 25 23 26 28 28 28 29 29 30 29 30
17 22 28 33 35 36 35 33 31 29 26 24 22 20 20 19 19 19 19 21 22 23 25 26 28 29 30 31 31 32 32 31 31 30 30 30 31 31 31 31 32 32 32 31 32 32 32 31 30 30 28 25 24 23 20 19 19 18 17 17 17 18 18 20 22 20 20 22 23 25 28 29 29 31 29 24 23 24 24 24 25 26 27 28 28
18 22 28 34 36 35 34 32 30 27 24 22 20 19 19 19 19 19 20 22 23 24 26 27 29 29 30 31 32 32 32 31 30 30 30 30 31 31 32 32 32 32 32 31 30 30 32 33 34 34 32 28 25 23 20 18 19 19 19 18 17 18 19 20 23 24 25 27 25 25 29 30 27 27 29 28 26 23 21 21 22 23 25 26 26
19 22 28 34 35 34 33 31 27 24 23 21 20 18 17 18 19 20 21 23 24 26 28 28 29 30 30 31 32 32 32 31 30 30 29 30 31 32 32 32 32 31 30 29 27 26 26 28 30 30 29 26 23 22 20 19 19 19 19 19 20 21 21 22 25 28 29 30 28 28 31 32 27 22 24 27 28 27 24 19 18 19 22 23 23
19 24 29 34 35 34 32 29 25 23 22 20 17 16 17 18 19 20 22 24 25 27 28 29 29 30 30 30 31 32 32 31 31 30 29 29 30 31 32 33 33 32 31 29 29 30 30 30 30 29 28 27 26 26 26 24 23 20 18 20 20 19 21 24 26 27 28 28 27 27 29 32 29 25 24 25 25 28 29 24 19 17 17 18 19
21 25 31 35 35 33 30 27 24 22 19 17 15 16 17 18 19 21 23 25 26 27 28 29 30 30 30 30 30 30 31 30 30 29 28 28 30 31 32 33 33 33 32 30 31 33 33 35 36 36 36 35 34 35 35 34 33 29 26 28 24 19 21 25 24 23 24 24 22 20 22 26 29 27 25 22 21 27 32 29 23 19 16 16 17
23 28 35 37 34 29 25 23 21 18 15 14 14 15 16 18 19 21 23 24 25 27 29 30 31 31 31 31 29 29 30 29 28 28 27 28 30 30 31 31 31 30 30 30 31 31 30 31 34 35 36 37 36 36 36 37 37 34 34 35 30 23 23 25 23 20 22 23 23 22 21 21 23 25 23 18 20 27 32 32 27 22 18 17 16
26 32 37 35 29 24 20 18 16 13 12 12 12 13 15 17 19 20 22 23 25 27 30 31 32 33 33 33 32 31 30 29 29 28 27 28 29 30 29 29 29 29 28 27 27 27 26 27 28 28 28 28 28 29 30 31 32 33 35 38 35 31 28 26 23 21 23 25 25 26 25 20 19 22 21 16 16 20 25 29 28 24 22 20 18
Wind_Direction
221 217 222 227 228 230 228 226 223 222 222 218 220 227 231 230 221 217 218 223 221 215 214 213 215 218 220 219 217 215 213 209 204 201 203 197 181 162 142 92 9 341 354 2 7 3 12 15 354 329 285 272 281 292 296 291 287 282 286 326 347 349 350 339 331 17 118 108 92 76 68 65 59 54 49 39 34 32 30 31 34 37 39 42 43
221 222 227 233 237 238 237 239 237 233 228 219 221 225 235 243 219 215 215 215 218 217 216 214 214 218 219 218 219 219 217 214 213 213 219 227 222 210 190 179 194 329 4 2 4 9 15 29 31 29 27 8 355 346 339 328 307 271 252 251 280 321 337 328 309 308 296 256 100 85 72 66 62 59 56 47 38 33 29 28 31 34 37 40 42
221 224 228 236 245 244 242 247 248 246 233 219 218 218 228 242 212 212 213 208 211 214 216 215 213 217 218 217 219 222 223 221 221 222 226 231 232 227 212 193 186 202 292 27 19 14 18 28 34 38 41 39 37 29 19 9 351 289 225 233 242 264 293 308 294 294 300 286 284 27 73 70 63 60 62 55 44 35 29 25 26 31 35 37 41
229 231 232 239 248 250 250 249 251 254 240 222 214 208 219 231 201 198 202 200 203 203 207 213 213 216 217 216 220 224 229 230 230 230 233 236 233 229 220 202 191 199 219 243 23 14 15 20 24 30 34 34 38 34 26 15 1 8 216 229 238 245 257 274 280 285 294 292 281 279 299 72 65 61 64 62 52 40 31 25 22 26 31 33 36
240 242 243 242 247 254 257 251 251 254 239 222 212 204 205 205 193 189 189 193 200 200 201 207 213 218 219 218 221 227 233 235 237 238 239 240 233 228 221 211 202 203 216 237 289 350 2 10 13 11 12 13 19 25 21 5 354 1 7 274 248 248 247 255 260 266 276 279 273 267 262 251 165 67 72 73 64 47 35 26 20 20 26 29 31
242 248 254 252 254 261 264 258 251 252 237 223 213 204 197 192 190 191 192 194 202 207 210 212 212 216 221 222 223 229 235 237 240 242 244 240 232 228 224 219 212 210 222 243 268 307 339 358 6 3 360 358 358 4 14 10 0 357 356 355 315 273 253 249 250 248 254 261 260 258 255 249 242 245 230 113 87 60 40 27 19 17 20 25 27
246 248 251 255 259 260 263 256 245 243 232 224 220 211 201 194 193 195 200 203 205 208 215 221 221 217 219 222 224 229 234 237 240 243 244 238 232 230 224 223 224 226 234 246 265 290 311 337 355 1 2 359 356 353 358 13 19 12 3 358 349 326 294 263 253 250 246 246 250 250 249 245 239 241 240 230 182 108 46 29 18 13 15 20 24
261 258 254 252 251 249 250 246 239 236 228 227 227 217 208 203 201 202 204 206 210 212 215 220 224 225 222 220 224 229 233 237 240 240 240 235 233 231 227 228 232 236 241 247 259 275 287 306 330 351 1 1 358 353 352 359 13 23 21 14 8 355 332 304 278 264 251 241 241 242 242 239 234 237 241 241 230 211 195 25 13 7 10 14 19
279 272 258 242 239 239 237 235 230 229 231 232 229 219 215 215 212 209 209 208 213 217 220 222 224 227 229 226 225 229 232 234 234 233 232 231 231 231 230 233 235 239 243 247 256 264 271 283 296 314 338 353 353 353 353 354 2 11 17 24 25 18 4 341 308 283 267 251 242 237 237 238 233 232 238 244 242 233 233 264 351 355 1 7 12
285 278 249 228 236 238 229 227 225 223 228 231 229 221 217 220 221 219 217 216 218 220 223 228 230 232 235 234 229 229 230 227 227 229 230 231 231 232 232 233 235 237 240 244 251 257 263 271 278 286 296 312 327 341 350 353 357 357 359 9 17 18 16 8 343 300 275 259 250 241 235 238 237 233 237 244 248 244 244 251 279 321 344 358 4
268 270 257 225 231 233 230 234 234 230 230 227 229 229 221 220 226 228 225 224 227 229 230 233 237 237 235 237 234 232 233 232 231 232 234 235 234 236 234 234 236 237 239 242 246 250 255 262 267 275 282 286 290 305 323 337 346 345 342 349 0 7 10 11 6 334 281 252 253 255 246 245 244 237 236 243 249 251 253 256 262 285 315 341 354
247 253 261 255 219 234 234 237 238 237 239 233 230 235 231 223 225 230 230 229 233 237 239 239 243 242 238 240 239 237 239 239 237 236 237 240 239 238 237 237 240 242 241 242 244 247 252 257 261 265 272 278 280 282 292 303 315 321 323 330 343 351 354 3 9 357 307 238 241 256 261 261 255 245 240 241 246 252 257 262 265 272 292 316 335
212 224 240 238 208 227 228 228 233 233 237 237 233 235 237 231 226 230 231 230 234 236 237 240 246 247 241 239 239 241 244 242 240 239 240 242 241 241 239 236 236 238 239 242 246 250 254 259 262 264 266 272 275 274 276 282 290 297 303 311 322 329 334 343 356 359 339 250 231 239 250 262 266 259 251 247 246 250 256 266 269 270 281 299 316
115 167 196 188 168 187 166 145 131 145 193 216 225 230 236 235 230 230 228 227 231 233 234 239 246 249 245 242 241 242 244 244 242 241 242 245 244 243 244 243 241 243 248 252 255 256 257 260 263 266 265 266 269 270 270 271 275 281 288 295 303 310 316 319 334 352 350 303 242 234 238 248 262 273 270 261 256 253 254 266 273 272 276 289 301
86 109 141 152 148 156 147 141 126 117 129 155 185 203 217 231 233 231 225 225 228 230 232 236 243 247 246 248 247 241 240 242 243 242 243 245 244 246 249 250 249 250 254 257 259 259 259 261 263 266 266 264 264 265 266 268 270 272 276 282 288 294 301 304 315 338 346 335 268 232 235 241 245 264 281 280 276 266 257 260 271 275 275 283 293
86 96 111 131 141 154 161 166 154 137 138 143 152 166 175 197 219 218 224 237 231 227 228 233 239 240 238 241 243 240 239 240 241 242 245 248 248 248 249 250 250 251 253 256 259 259 258 259 262 265 265 264 262 263 265 268 269 268 267 271 275 280 286 290 297 312 330 341 311 233 232 238 237 245 262 278 291 283 267 260 265 273 275 279 286
87 92 101 113 125 136 152 171 183 175 179 184 176 174 178 191 200 198 202 216 216 215 219 224 230 232 231 230 230 232 238 240 239 239 240 244 248 249 249 249 249 249 252 255 258 260 259 257 258 260 261 260 260 260 262 264 266 266 264 264 266 270 274 277 280 286 299 325 326 256 239 241 240 240 248 260 277 285 280 269 262 268 275 279 283
83 91 95 99 104 111 117 128 151 173 197 229 220 206 215 222 224 219 199 194 198 205 213 216 222 226 227 228 229 233 241 243 243 243 239 237 241 245 248 251 250 250 252 255 258 259 259 258 257 258 258 258 258 258 258 259 260 261 262 262 262 263 266 266 267 271 275 288 309 288 251 247 247 246 247 252 259 266 275 276 266 264 270 277 282
82 88 90 91 92 95 97 100 104 109 117 103 110 166 198 218 227 226 221 204 194 195 206 215 217 208 209 222 233 238 245 248 247 252 253 245 241 241 247 252 252 253 253 254 256 258 258 258 259 261 262 263 261 259 257 256 257 257 258 259 259 258 259 259 258 260 264 267 276 280 260 253 255 254 252 251 252 255 259 263 263 261 265 271 278
86 90 92 92 93 94 92 90 88 87 84 72 64 78 106 157 198 210 216 212 203 201 204 207 206 202 203 215 227 230 236 244 248 251 255 257 251 245 248 252 251 253 254 255 257 258 259 258 259 262 264 266 265 263 261 258 258 258 257 256 255 254 252 251 252 253 255 258 262 265 256 252 260 260 254 251 252 254 256 257 256 254 255 261 266
91 96 98 98 96 92 88 83 77 72 66 52 39 35 35 32 10 336 282 231 220 215 214 217 219 219 218 220 224 226 228 237 245 246 248 257 257 252 252 252 250 249 249 252 256 259 262 262 261 262 263 264 263 262 262 261 261 261 259 256 251 249 246 244 246 248 250 252 255 260 257 253 259 261 256 253 251 253 255 256 256 255 253 254 257
102 105 108 108 104 96 87 78 65 56 47 38 28 13 358 352 342 329 321 306 282 263 248 243 245 247 244 238 236 238 242 245 248 249 250 255 259 259 257 253 251 251 249 251 255 259 262 264 265 266 266 266 264 263 263 265 266 266 263 258 250 244 240 238 238 241 246 248 250 254 255 253 254 255 255 255 253 252 255 256 256 257 256 255 255
131 129 131 131 125 116 104 81 57 43 36 35 33 22 6 353 345 336 327 319 309 298 289 280 274 273 272 267 259 252 254 257 258 259 259 259 261 265 269 267 261 259 256 254 254 257 260 262 265 268 268 269 268 267 267 268 269 270 267 261 252 244 240 236 233 233 237 242 245 248 251 251 252 252 252 255 259 257 256 257 257 257 257 256 256
181 172 172 169 167 165 153 117 49 31 21 23 28 29 27 19 12 359 346 337 329 321 307 294 285 281 280 279 278 274 270 270 270 269 268 269 272 273 276 280 276 271 269 264 260 259 259 260 266 270 273 275 274 272 270 270 271 271 268 263 257 250 245 240 235 232 232 236 239 242 245 248 250 252 250 250 255 258 259 260 258 259 259 257 255
210 208 210 205 207 216 228 257 296 340 343 1 11 11 14 18 22 16 4 354 347 344 336 321 304 290 283 279 276 275 273 274 275 274 272 271 273 278 278 277 278 279 280 278 274 271 267 265 267 271 279 283 282 279 275 272 271 270 268 264 259 255 253 249 245 240 237 237 238 238 240 242 245 249 250 249 250 253 259 262 261 262 263 261 256
224 225 228 228 229 234 243 258 275 296 315 342 357 2 2 2 7 6 359 354 349 347 344 340 335 322 305 292 281 275 274 273 273 272 273 272 270 273 277 278 279 281 283 283 281 278 274 270 267 269 275 277 279 285 283 275 269 267 266 263 259 256 256 254 249 243 240 241 242 241 239 239 240 242 246 249 250 252 257 263 265 265 264 264 259
229 233 238 238 240 243 250 259 271 290 308 328 340 350 353 350 354 353 346 345 344 340 339 337 334 332 328 320 308 295 286 280 277 273 272 272 270 271 276 282 286 287 287 285 282 280 277 274 273 272 272 271 272 276 277 275 271 267 266 265 263 259 258 258 255 252 248 246 247 246 242 239 237 238 240 243 247 251 252 257 264 265 263 262 260
234 239 243 245 245 248 255 262 272 287 302 317 327 334 337 339 341 339 336 338 337 335 333 331 328 326 326 325 323 318 310 302 295 287 280 276 273 273 273 276 283 288 291 289 284 282 281 280 277 274 270 268 270 268 267 268 271 270 270 271 270 268 266 266 263 258 253 250 250 249 246 243 238 236 235 237 241 246 247 250 257 262 261 259 259
238 242 245 247 248 250 256 262 269 280 294 309 318 322 324 324 325 325 325 327 328 328 327 326 326 325 323 323 323 320 318 316 312 307 301 292 284 278 274 270 270 275 284 286 282 279 278 278 276 273 270 266 265 265 263 261 261 265 269 271 272 272 269 266 261 255 252 251 252 252 252 251 246 241 236 234 236 240 244 247 250 256 258 255 255
239 243 244 246 247 248 253 259 266 273 285 298 307 312 312 311 312 314 318 321 323 323 323 325 327 328 328 328 328 326 322 321 318 316 316 309 299 290 281 275 270 268 270 277 281 282 281 282 281 274 269 265 262 263 264 262 261 261 261 264 267 268 266 261 257 255 253 254 255 255 256 255 251 249 245 240 237 236 240 244 246 250 253 253 252
240 243 246 247 249 250 252 256 262 268 277 288 300 306 303 300 302 305 311 317 322 325 326 328 329 331 333 334 335 333 330 330 327 322 321 316 309 301 288 280 275 271 269 273 279 283 283 283 280 272 267 268 265 264 264 264 265 264 261 261 262 263 264 264 260 257 256 258 257 257 259 255 247 248 252 251 245 239 237 240 243 245 249 251 251
245 246 248 249 250 251 252 254 258 264 271 281 293 301 299 294 293 294 301 308 314 319 323 326 329 331 333 335 336 335 333 333 331 328 325 319 311 304 291 282 276 272 271 268 273 280 283 282 281 280 278 277 276 274 271 268 266 265 264 264 263 263 264 266 264 261 258 258 257 256 258 257 249 248 253 254 249 242 237 237 240 242 245 248 250
247 248 249 251 252 253 252 254 257 261 266 275 285 292 292 290 288 288 293 300 304 308 313 316 321 324 327 330 330 330 330 330 329 327 325 321 316 310 299 287 281 275 272 268 271 280 286 285 284 284 282 281 282 283 282 279 275 269 264 262 263 264 263 263 264 263 259 256 254 252 251 252 251 249 252 251 247 244 240 238 238 240 243 245 247
248 248 249 251 252 254 254 253 255 258 262 269 277 283 285 283 283 285 291 298 300 302 306 309 311 315 318 320 321 321 322 323 323 322 319 317 316 312 306 296 285 278 276 275 275 281 285 286 285 285 284 284 285 284 284 283 282 279 272 265 261 260 261 261 261 260 258 255 252 250 247 247 248 249 249 248 246 245 243 241 239 239 241 243 244
248 248 248 248 249 251 253 253 254 256 258 262 268 275 278 278 278 282 288 295 299 303 306 308 310 312 312 313 313 314 315 316 316 315 313 313 312 309 307 301 291 284 281 280 280 282 285 287 287 287 287 287 285 285 285 284 284 284 282 275 266 260 259 260 260 258 256 254 252 251 248 246 246 247 248 247 245 244 244 243 241 240 240 242 243
252 249 247 246 246 246 247 249 251 253 255 258 262 267 271 272 274 278 284 291 296 300 303 305 308 310 310 311 311 311 312 311 310 310 309 308 307 304 303 301 296 292 287 280 280 283 287 290 291 290 288 286 286 287 288 288 288 287 285 281 275 266 258 255 256 258 257 254 253 252 250 247 245 245 247 247 246 243 242 243 242 240 239 240 242
256 254 249 246 245 245 244 245 247 249 252 254 258 262 266 268 270 274 280 286 291 294 298 301 303 305 307 310 312 312 311 310 309 308 307 304 302 299 298 295 292 291 288 280 278 280 283 287 290 290 288 288 290 290 290 291 291 290 287 285 281 273 263 256 253 255 258 258 256 255 253 250 246 245 244 245 245 243 242 241 242 242 239 239 240
256 254 252 248 245 245 244 243 244 246 248 251 254 258 262 264 266 269 275 280 285 290 294 297 299 302 305 308 311 312 312 312 311 310 308 305 302 298 295 291 285 283 282 278 275 277 279 281 285 287 287 288 289 290 293 293 291 289 289 288 285 279 271 262 255 254 257 260 261 262 260 255 251 248 246 246 246 244 243 241 241 242 241 239 240
257 255 252 248 245 243 244 244 243 244 246 249 252 256 259 260 261 265 270 275 280 285 289 293 297 301 304 307 309 311 312 312 311 311 310 308 304 299 295 292 284 278 276 274 273 273 275 276 279 283 285 287 288 289 292 293 291 290 289 288 285 282 277 270 262 256 255 256 258 262 264 261 256 253 250 249 248 247 245 243 241 242 242 240 240
265 261 253 246 243 242 242 242 241 243 246 249 252 254 256 257 257 262 268 273 279 284 289 293 297 301 304 307 308 309 310 309 308 308 308 306 304 299 295 291 284 276 273 273 271 271 271 272 274 278 281 284 285 287 290 292 292 290 287 283 280 280 279 277 272 266 260 257 256 258 263 264 261 258 255 252 251 249 248 247 244 242 241 241 240
271 263 251 243 242 242 241 240 241 245 248 249 251 252 252 253 256 262 269 274 281 287 292 297 301 304 306 306 307 307 306 305 305 304 304 303 300 297 295 292 285 276 272 272 270 269 269 269 269 272 276 278 281 283 285 287 288 287 284 281 278 278 278 276 275 273 270 265 259 255 257 261 264 262 259 256 254 251 250 249 248 245 242 241 240
269 262 251 242 240 239 239 241 244 247 247 248 248 248 248 251 257 264 272 279 286 291 295 299 302 304 305 306 306 305 304 304 303 302 301 300 298 296 294 291 285 279 273 270 267 266 266 267 267 268 269 269 273 278 281 283 284 285 284 282 281 280 278 277 276 274 273 271 266 259 254 255 261 264 261 257 255 254 252 251 252 250 244 241 240
266 261 251 242 237 235 237 241 244 244 243 242 242 243 246 252 259 268 276 283 288 293 296 300 302 304 305 306 305 305 305 305 304 302 301 300 297 295 291 288 284 279 275 272 268 264 263 265 265 265 266 266 267 271 276 280 282 282 282 280 280 281 280 278 276 274 272 269 266 261 256 253 255 259 259 256 254 254 255 255 253 250 245 241 240
263 256 247 240 236 235 235 237 239 239 239 238 238 240 246 255 264 274 280 285 289 293 297 300 303 305 306 306 306 305 305 305 303 301 301 299 297 294 291 287 283 279 276 274 271 268 265 264 264 262 262 265 266 266 269 273 275 277 277 275 275 278 278 274 272 272 271 266 261 259 257 253 252 254 255 255 256 256 257 257 253 249 244 241 241
261 252 242 234 233 234 232 231 232 233 233 233 235 241 250 260 268 276 281 285 290 294 298 302 305 305 305 306 306 305 305 304 303 301 300 299 296 294 291 288 285 282 280 277 274 271 268 265 265 264 263 263 264 264 264 267 270 271 271 271 271 273 272 270 269 268 263 260 259 258 257 253 251 251 250 252 259 260 259 259 256 251 247 243 241
256 248 238 231 230 230 228 227 228 228 228 230 236 244 253 262 271 277 283 288 292 296 300 303 304 304 305 305 305 304 304 303 302 301 299 297 294 292 289 286 284 283 281 278 276 274 271 268 266 266 266 264 263 264 264 264 267 267 267 267 267 268 269 268 268 266 261 258 257 255 257 255 252 252 251 250 256 261 261 262 261 258 254 248 242
251 244 236 230 227 224 222 222 223 223 224 229 236 246 256 266 274 280 285 289 293 297 300 302 303 303 304 304 304 303 303 301 300 299 297 295 292 289 287 284 282 280 278 275 273 271 269 268 266 267 267 265 263 264 264 262 263 264 266 267 266 266 268 269 269 269 268 265 259 254 256 256 253 253 252 249 252 257 257 258 261 260 258 253 244
249 243 235 229 223 220 218 217 217 218 222 229 239 251 262 270 276 282 286 290 295 298 300 301 302 302 303 304 303 302 301 300 300 298 296 293 290 288 285 283 281 279 276 273 272 269 267 265 264 264 263 261 258 257 257 257 259 262 264 266 264 263 265 267 269 270 270 268 262 254 253 255 252 251 253 251 250 253 253 252 255 259 260 255 245
245 238 230 224 220 217 214 211 212 216 224 234 246 257 265 272 279 284 288 293 297 299 301 302 302 302 303 303 302 301 300 301 300 299 297 294 290 288 285 283 281 278 276 274 272 271 270 269 269 268 267 264 261 259 258 257 257 259 259 259 257 256 259 261 263 265 266 265 260 250 248 253 252 250 252 253 250 250 250 250 252 255 257 254 248
244 235 225 218 213 209 206 206 211 218 227 239 250 260 269 277 283 287 292 296 300 302 304 305 305 305 304 304 303 301 301 302 302 300 297 295 292 289 286 284 281 279 278 277 275 273 272 272 273 274 274 274 272 268 265 261 258 255 252 252 253 252 253 255 256 260 261 258 254 249 247 250 252 250 250 253 254 252 250 248 249 251 251 251 251
239 230 219 210 202 197 198 204 211 218 230 243 255 267 278 284 289 293 298 303 306 308 308 308 308 308 307 307 306 305 303 302 300 298 296 293 291 289 286 283 280 279 280 280 278 276 274 272 272 273 274 274 274 272 268 265 262 256 251 248 247 246 248 250 250 252 255 254 254 254 251 248 250 250 247 247 253 257 254 250 248 248 248 249 252